Location: Baumgartsau
(48.4586°N, 14.0864°E)
Time: 02:10:05
(UTC+00:00)

IRS-1A Rocket - Pass Details

Date: 09 April 2020
Orbit: 851 x 931 km, 99.2° (Epoch: 04 June)

Event Time Altitude Azimuth Distance (km) Brightness Sun altitude
Rises 18:03:40 0° 154° (SSE) 3,494 7.0 -3.6°
Reaches altitude 10° 18:06:03 10° 152° (SSE) 2,569 6.3 -4.0°
Maximum altitude 18:11:44 69° 70° (ENE) 976 4.4 -4.9°
Drops below altitude 10° 18:17:35 10° 349° (NNW) 2,633 7.2 -5.8°
Sets 18:20:02 0° 347° (NNW) 3,586 8.0 -6.2°
